Погода в Албене

Болгария     43°21′58″N   28°04′25″E
темп.,
°C
ветер,
м/с
пор.,
м/с
влажн.,
%
обл.,
%
осадки,
мм/ч
давл.,
гПа
погр.,
м
5 августа, чт
чт500:00+23ю23902 0.0 1015131
03:00+23ю22916 0.0 1014102
06:00+22ююз23910 0.0 1014101
09:00+27ю45710 0.0 1013481
12:00+29ююв66640 0.0 1012629
15:00+29юв67640 0.0 1010550
18:00+27юв79739 0.0 1008496
21:00+25юв611915 0.0 1007435
6 августа, пт
пт600:00+24ююв47914 0.0 1007274
03:00+24вюв349338 0.0 1006151
06:00+24юв249369 0.0 1004143
09:00+27ююз2372100 0.0 1004479
12:00+31зсз2442100 0.0 10041287
15:00+30в4443100 0.0 1002331
18:00+28вюв2261100 0.0 1003484
21:00+25ссз1162100 0.0 100412
7 августа, сб
сб700:00+21зсз4970100 0.9 1006152
03:00+22ссз9155797 1.1 1005364
06:00+21ссз71266100 0.0 1006354
09:00+24с91156100 0.0 1008533
12:00+28ссв66433 0.0 10091280
15:00+28св454499 0.0 10101422
18:00+28св454516 0.0 10111332
21:00+24ссв23530 0.0 101364
8 августа, вс
вс800:00+21ссз33570 0.0 101460
03:00+19ссз33580 0.0 101470
06:00+18ссз33620 0.0 101580
09:00+24с35460 0.0 1016529
12:00+28в44340 0.0 10161081
15:00+27вюв65450 0.0 1015772
18:00+26вюв44472 0.0 1016418
21:00+22вюв12620 0.0 1016116
9 августа, пн
пн900:00+21юз11670 0.0 1017103
03:00+20з22710 0.0 101647
06:00+20зсз22590 0.0 101637
09:00+27вюв21350 0.0 1016295
12:00+29юв43360 0.0 1016759
15:00+29юв54370 0.0 1016676
18:00+28юв454233 0.0 1015446
21:00+23вюв11675 0.0 101613